map of BRS home
Great Circle Mapper logo
BRS - Airport
Location
City:  Bristol, Somerset, England, United Kingdom
Name:Bristol International Airport
Old (Alt.):Lulsgate
ICAO / IATA:EGGD / BRS

Details
Type:Airport (Aerodrome, Airfield)
Use:Public/Civil, International (customs port of entry)
Latitude:5122'58"N (51.382669)
Longitude:243'09"W (-2.719099)
Elevation:622 ft (190 m)
Variation:1.78W (WMM2015 magnetic declination)
0.15 annual change
Runways:1
Longest:6598 × 148 ft (2011 × 45 m), paved

Time
Time Zone:UTC+0 (DST+1)
Local Time:

Weather
METAR:EGGD 011120Z 32010KT 9999 FEW029 SCT044 04/M03 Q1003
TAF:EGGD 011059Z 0112/0212 32015KT 9999 SCT040
BECMG 0116/0119 29005KT

Related Locations
Nearby:
Farthest:NZBA: 11940 mi / 19216 km
Balclutha, NZ

Find:

   beyond  
but within

Other Information
Maps:
NOTAMs:
Links:
Sources:

  
flag of United Kingdom
flag of England
  

Airport Diagram

Airport diagram for BRS

Airport diagram PDF

Sectional Chart

Flight Planning
at skyvector.com

Satellite Image

Google Maps Satellite View

 

Copyright © 2004-2015 Karl L. Swartz. All rights reserved.
The Great Circle Mapper name and logo are trademarks of the Great Circle Mapper.
All other trademarks mentioned herein belong to their respective owners.
Please see credits for attibutions and further copyright information.

  Follow gcmap on Facebook Follow gcmap on Twitter

hCard Microformat

Geo Microformat